Weather WX

World > North America > United States > North Carolina

Battleboro, North Carolina Regional Weather

Lat: 36.05N, Lon: 77.75W
Wx Zone: NCZ027
Warning FLW WEATHER ALERT - (More Info. Click Here) Warning
Feedback

Battleboro, NC Regional Weather

Expires:201907181700;;258683
ASUS42 KMHX 181626
RWRMHX
WEATHER ROUNDUP FOR EASTERN NORTH CAROLINA
NATIONAL WEATHER SERVICE NEWPORT/MOREHEAD CITY NC
1200 PM EDT THU JUL 18 2019

NOTE: "FAIR" INDICATES FEW OR NO CLOUDS BELOW 12,000 FEET
WITH NO SIGNIFICANT WEATHER AND/OR OBSTRUCTIONS TO VISIBILITY


NCZ011>013-027>030-043-044-078>080-089-090>093-098-181700-
COASTAL PLAIN
  
CITY           SKY/WX    TMP DP  RH WIND       PRES   REMARKS
AHOSKIE        NOT AVBL                                               
CLINTON        FAIR      90  75  62 S6        29.99F HX 100           
ELIZABETHTOWN  FAIR      91  72  54 SW10      30.00F                  
GOLDSBORO      FAIR      89  74  60 SW15      29.97S                  
GREENVILLE     FAIR      90  73  58 SW12      29.99S                  
HAVELOCK       FAIR      91  78  65 SW10      30.00F HX 106           
KENANSVILLE    FAIR      91  73  55 SW8G21    29.99S HX 100           
KINSTON        MOSUNNY   91  73  55 SW14G20   29.99S HX 100           
NEW BERN       FAIR      90  79  70 SW9       29.99F HX 106           
RICHLANDS      FAIR      92  75  57 S16       30.00F HX 103           
ROCKY MOUNT    FAIR      90  74  59 S8        29.97F                  
WASHINGTON     FAIR      90  76  64 SW10      29.98S HX 101           
WHITEVILLE     FAIR      88  74  61 S6        30.01F                  

$$


SKY/WX - Weather  TMP - Temperature  DP - Dew Point  RH - Relative Humidity
WIND - Wind Direction/Speed PRES - Barometric Pressure VSB - Visibility
WCI - Wind Chill Index E13G22 Wind - East Wind 13 mph/Gusts of 22 mph